Vertical_Velocity
5 5 -4 0 1 -1 -1 -1 1 -1 2 2 2 -0 -4 -3 -5 -4 0 -2 -1 1 2 0 -1 -3 -3 -2 -5 -7 -0 3 2 5 3 1 1 0
1 13 -2 11 -1 0 -3 -0 0 -1 3 -7 -4 -3 -3 -2 -1 -2 0 -3 1 0 -2 -0 -4 1 -1 -2 4 -1 2 4 3 3 2 -1 -0 3
8 -1 -4 -1 -5 -2 -2 -1 -3 -2 -1 -2 -4 -4 -3 3 1 2 0 2 1 -1 -1 1 -3 3 5 -3 3 0 3 0 -2 2 3 2 1 1
2 -5 -3 -5 -1 -3 -4 -0 -1 -1 -2 -3 -3 0 -7 0 -2 -1 0 -3 -4 -5 -4 1 -1 2 0 -5 -1 2 2 2 -0 1 -0 4 1 0
-1 -1 -7 -4 0 -1 -3 -1 -2 -2 -5 -0 1 -2 2 -3 -2 -1 -4 -2 -3 -4 0 -5 -3 4 4 4 -0 -2 -1 3 -0 -1 1 2 4 1
-12 -9 -5 -4 -2 -2 -3 -4 -3 -3 -1 -2 -2 1 -0 -0 -3 -3 -1 -5 -2 -2 -2 4 -4 -10 -9 -2 -1 2 4 -1 0 1 1 2 1 1
2 1 -1 -6 -3 -3 -1 -1 -2 -3 -0 -1 -2 -2 -1 -3 -2 -3 -0 3 -1 -0 2 1 5 -1 3 -1 5 5 4 0 0 0 1 2 4 2
-3 8 -4 -4 1 -6 -4 -4 -1 -1 -1 -1 2 0 -5 -2 -1 -0 -1 1 8 -5 -1 1 -1 2 0 6 -6 -1 1 1 3 3 2 3 2 1
-4 1 -2 -2 1 -2 -3 -2 1 1 -1 -2 2 2 2 0 1 -3 -5 -5 -7 -1 0 -3 6 -2 -3 5 2 -0 5 1 3 1 1 3 2 3
-2 2 3 -1 -6 -4 -4 -1 -0 1 -2 -1 -4 2 -0 -3 -6 1 -4 -6 -4 -3 -2 6 2 -4 0 5 0 -1 1 0 -0 0 1 1 1 2
-2 -4 -2 -5 -4 2 -3 -1 -1 1 -2 4 0 -1 -3 -2 3 -5 -3 -6 -5 -7 -7 -3 5 2 -1 5 1 -1 -1 -1 -1 1 0 0 0 4
2 -3 -3 -7 -0 -1 -2 -2 -1 -1 6 2 -2 1 -0 3 -6 -0 -7 8 -6 -1 -9 1 -1 -5 0 1 1 0 -1 -0 -1 -1 0 -0 0 -3
-2 -2 -3 -3 0 1 -0 2 1 -4 3 1 4 -7 -4 -4 -0 -4 -2 -3 -6 3 -3 -8 -3 -1 1 4 -2 0 1 -1 0 -1 -2 1 4 2
1 2 1 -4 0 0 -2 1 -0 4 -6 1 0 0 -5 1 -2 -1 -1 -6 6 -1 -4 -8 -2 -2 1 1 -0 -0 2 0 -1 -1 -1 -3 -3 2
5 -2 3 -2 -2 4 -2 2 0 -1 -1 2 4 -5 4 -11 -5 1 4 -2 -0 -1 -3 -3 -4 1 1 -1 -0 1 1 0 -0 -1 -1 0 -1 -0
-1 2 -4 -2 3 3 -1 -1 4 6 -7 2 1 2 7 -20 8 0 -2 -4 5 4 -7 -3 -1 -1 -2 1 1 -1 1 0 -1 0 0 2 1 0
5 2 2 -4 -1 1 1 -1 2 2 -8 5 -1 6 2 -7 5 -9 -0 -4 6 -2 -4 0 -1 -2 -4 1 1 1 -0 -2 -1 0 -0 0 1 -0
2 0 1 -3 -3 -2 -1 -1 6 -1 -3 4 -4 -1 7 0 2 -0 -6 -2 2 -2 -0 -4 -1 -1 -1 -1 2 -0 -1 0 1 2 2 -0 -0 -0
6 -4 -4 -2 1 -5 7 7 1 -7 2 -7 1 5 1 1 3 -3 -4 2 -3 -0 -2 -3 -2 3 3 -0 -1 -1 0 3 2 0 1 1 0 1
6 -5 2 -2 -6 -3 3 1 2 1 -4 0 3 -0 1 2 2 -5 -1 -0 -1 -0 -4 -4 4 5 2 -3 -0 -0 0 0 2 0 1 3 0 3
-5 5 1 -5 -4 6 3 1 3 3 1 2 0 -0 0 2 -2 -3 -0 -2 2 -2 -3 -2 1 4 1 -0 2 -1 2 1 1 1 0 1 2 2
-4 -1 1 -1 0 2 -2 2 6 1 0 0 -1 0 -1 -1 -2 -1 -2 -1 -1 -1 -2 -1 1 6 0 1 1 3 4 3 2 2 1 0 0 1
1 -1 -3 4 2 2 3 2 1 0 3 -1 -1 0 -2 1 -0 -2 -3 -2 -3 -2 -2 -1 2 3 4 -1 2 -1 2 2 1 5 5 1 1 1
Height
5793 5793 5795 5797 5800 5800 5800 5800 5799 5798 5798 5796 5796 5795 5793 5791 5786 5781 5776 5771 5768 5764 5760 5757 5752 5748 5744 5740 5737 5734 5732 5729 5726 5724 5724 5722 5720 5720
5784 5788 5787 5788 5792 5792 5792 5792 5790 5789 5790 5788 5787 5786 5785 5780 5776 5771 5766 5762 5758 5754 5751 5747 5742 5738 5734 5730 5726 5723 5722 5719 5717 5716 5715 5713 5712 5711
5775 5779 5780 5782 5784 5784 5783 5783 5782 5782 5782 5781 5780 5778 5774 5770 5766 5760 5757 5753 5750 5745 5742 5737 5734 5729 5724 5720 5716 5714 5711 5708 5706 5706 5705 5704 5703 5704
5768 5770 5772 5775 5775 5775 5775 5774 5774 5774 5774 5773 5771 5768 5764 5760 5756 5752 5750 5747 5743 5738 5733 5727 5721 5717 5712 5708 5705 5702 5700 5697 5696 5694 5695 5694 5694 5695
5763 5765 5765 5767 5767 5766 5765 5765 5765 5764 5763 5762 5760 5757 5752 5750 5747 5744 5743 5739 5735 5730 5723 5718 5712 5705 5701 5697 5693 5690 5689 5687 5685 5684 5684 5685 5686 5687
5756 5755 5756 5758 5758 5757 5756 5755 5754 5753 5753 5750 5748 5744 5742 5739 5736 5734 5732 5728 5723 5717 5713 5706 5700 5695 5690 5687 5683 5679 5678 5676 5675 5673 5674 5675 5677 5678
5744 5747 5748 5748 5748 5747 5747 5746 5745 5744 5742 5740 5736 5734 5732 5730 5726 5723 5720 5716 5712 5706 5701 5694 5689 5685 5680 5676 5672 5670 5668 5666 5665 5664 5664 5666 5667 5669
5736 5737 5739 5738 5737 5737 5736 5735 5734 5732 5729 5728 5726 5725 5722 5720 5716 5712 5709 5707 5702 5696 5691 5685 5679 5673 5669 5665 5662 5661 5659 5658 5656 5655 5654 5656 5658 5661
5727 5728 5728 5727 5726 5725 5725 5723 5721 5719 5717 5716 5715 5714 5711 5710 5707 5703 5699 5695 5690 5685 5681 5675 5669 5665 5659 5655 5653 5652 5651 5649 5647 5646 5645 5646 5649 5651
5715 5716 5716 5714 5714 5712 5711 5709 5709 5706 5705 5705 5704 5702 5701 5699 5697 5693 5689 5684 5680 5674 5670 5665 5659 5655 5650 5647 5645 5643 5641 5639 5638 5637 5637 5638 5640 5642
5702 5703 5703 5703 5700 5699 5699 5697 5696 5695 5694 5693 5691 5690 5687 5685 5684 5680 5676 5673 5669 5664 5660 5655 5649 5644 5641 5639 5637 5634 5632 5631 5630 5629 5629 5630 5631 5634
5689 5688 5688 5688 5687 5685 5686 5685 5684 5684 5683 5681 5678 5677 5675 5673 5672 5668 5664 5660 5657 5653 5648 5644 5639 5634 5631 5630 5628 5626 5625 5623 5621 5622 5622 5623 5625 5627
5674 5674 5673 5673 5673 5674 5673 5673 5673 5672 5670 5668 5667 5666 5664 5661 5659 5656 5653 5649 5646 5642 5637 5632 5628 5624 5621 5620 5618 5617 5616 5615 5614 5614 5615 5615 5617 5619
5658 5657 5659 5659 5660 5660 5659 5660 5660 5659 5659 5657 5656 5654 5653 5649 5646 5644 5641 5638 5635 5631 5627 5622 5618 5614 5612 5611 5609 5608 5607 5607 5607 5607 5607 5607 5607 5611
5642 5644 5645 5646 5646 5646 5647 5647 5647 5646 5647 5645 5644 5643 5640 5639 5635 5633 5630 5627 5623 5621 5617 5611 5608 5605 5604 5602 5600 5599 5599 5599 5599 5598 5598 5599 5599 5601
5630 5630 5631 5633 5635 5637 5636 5636 5635 5634 5633 5632 5631 5629 5629 5629 5625 5622 5620 5618 5613 5610 5606 5602 5600 5597 5595 5594 5592 5591 5591 5590 5590 5589 5590 5591 5592 5594
5616 5618 5618 5620 5623 5622 5623 5623 5623 5621 5620 5619 5618 5617 5619 5617 5613 5612 5609 5606 5603 5600 5596 5594 5590 5588 5586 5585 5584 5583 5583 5582 5581 5581 5582 5584 5585 5587
5602 5604 5605 5607 5608 5610 5610 5609 5609 5609 5606 5607 5606 5606 5605 5604 5602 5599 5598 5595 5594 5590 5587 5584 5581 5580 5578 5577 5576 5575 5574 5573 5572 5574 5574 5576 5577 5579
5589 5592 5591 5593 5595 5595 5594 5595 5595 5596 5597 5594 5593 5592 5592 5591 5589 5589 5586 5585 5582 5579 5576 5574 5571 5570 5569 5567 5566 5565 5564 5565 5565 5565 5566 5568 5569 5571
5576 5577 5576 5579 5579 5579 5580 5581 5582 5583 5583 5581 5580 5579 5579 5578 5578 5576 5574 5572 5570 5567 5565 5562 5561 5560 5558 5557 5556 5556 5555 5555 5555 5556 5557 5558 5560 5561
5561 5563 5563 5563 5565 5565 5567 5568 5569 5569 5569 5568 5567 5567 5567 5566 5565 5562 5561 5558 5556 5553 5551 5550 5549 5548 5546 5545 5545 5545 5545 5544 5544 5545 5546 5547 5548 5550
5547 5549 5549 5549 5551 5552 5552 5554 5556 5556 5556 5556 5555 5555 5554 5552 5550 5548 5545 5542 5540 5538 5536 5535 5535 5534 5533 5533 5533 5533 5533 5533 5534 5534 5534 5535 5537 5538
5532 5534 5534 5535 5535 5537 5539 5541 5543 5542 5543 5543 5543 5541 5539 5537 5535 5532 5529 5527 5525 5523 5522 5521 5521 5520 5520 5519 5520 5520 5520 5520 5521 5522 5522 5522 5523 5525